EW2946 Weather Reports


time (UTC)temp
F
wind
direction
speed
knots
gust
knots
rain 1hr
in
rain 24hr
in
rain mn
in
humidity
%
barometer
mb
20260503193038 60 14 0.0 5.2 0.00 0.00 0.00 68 1013.2
20260503191540 62 219 1.7 5.2 0.00 0.00 0.00 62 1013.1
20260503190042 61 270 1.7 4.3 0.00 0.00 0.00 62 1013.0
20260503184530 61 167 2.6 7.0 0.00 0.00 0.00 59 1013.1
20260503183032 61 246 2.6 6.1 0.00 0.00 0.00 62 1013.0
20260503181528 59 340 0.9 4.3 0.00 0.00 0.00 68 1012.9
20260503180033 60 348 1.7 3.5 0.00 0.00 0.00 70 1013.1
20260503174528 59 268 1.7 7.8 0.00 0.00 0.00 69 1013.0
20260503173025 59 148 0.9 5.2 0.00 0.00 0.00 67 1013.0
20260503171521 58 9 0.0 5.2 0.00 0.00 0.00 69 1013.0
20260503081531 53 5 0.0 0.9 0.00 0.00 0.00 84 1011.6
20260503071513 53 285 0.0 3.5 0.00 0.00 0.00 82 1011.5
20260503054507 54 85 0.0 4.3 0.00 0.00 0.00 81 1011.7
20260503053017 54 69 0.0 2.6 0.00 0.00 0.00 81 1011.9
20260503051505 54 255 0.0 3.5 0.00 0.00 0.00 80 1011.9
20260503050005 55 80 0.0 3.5 0.00 0.00 0.00 80 1011.9
20260503044506 55 92 0.0 2.6 0.00 0.00 0.00 80 1011.8
20260503043005 55 74 0.0 3.5 0.00 0.00 0.00 80 1011.7
20260503041506 55 93 0.9 5.2 0.00 0.00 0.00 80 1011.5
20260503040002 56 46 0.0 2.6 0.00 0.00 0.00 80 1011.3
20260503034501 56 69 0.0 4.3 0.00 0.00 0.00 80 1011.0
20260503033002 56 315 0.9 3.5 0.00 0.00 0.00 79 1010.9
20260503031501 57 14 0.0 3.5 0.00 0.00 0.00 78 1010.7
20260503030100 57 30 0.0 1.7 0.00 0.00 0.00 78 1010.6
20260503024600 58 88 1.7 5.2 0.00 0.00 0.00 77 1010.6
20260503023111 59 65 0.0 2.6 0.00 0.00 0.00 76 1010.4
20260503021559 59 78 1.7 4.3 0.00 0.00 0.00 75 1010.3
20260503020058 60 44 0.0 1.7 0.00 0.00 0.00 75 1010.3
20260503014600 60 92 0.9 5.2 0.00 0.00 0.00 74 1010.3
20260503013058 61 291 0.9 2.6 0.00 0.00 0.00 74 1010.3
20260503011604 61 322 1.7 2.6 0.00 0.00 0.00 72 1010.3
20260503010057 62 321 0.0 2.6 0.00 0.00 0.00 72 1010.3
20260503004558 62 317 0.0 3.5 0.00 0.00 0.00 72 1010.2
20260503003056 62 214 0.0 4.3 0.00 0.00 0.00 72 1010.1
20260503001555 63 190 0.9 2.6 0.00 0.00 0.00 71 1010.2
20260503000053 64 280 0.9 4.3 0.00 0.00 0.00 68 1010.3
20260502234558 63 181 0.9 5.2 0.00 0.00 0.00 69 1010.5
20260502233052 64 325 0.0 5.2 0.00 0.00 0.00 69 1010.6
20260502231600 63 303 0.0 3.5 0.00 0.00 0.00 70 1010.8
20260502230044 63 236 0.9 4.3 0.00 0.00 0.00 69 1011.1
20260502224542 63 37 1.7 5.2 0.00 0.00 0.00 69 1011.5
20260502223040 64 189 1.7 4.3 0.00 0.00 0.00 69 1011.8
20260502221537 63 184 1.7 5.2 0.00 0.00 0.00 69 1012.1
20260502220035 64 271 0.9 4.3 0.00 0.00 0.00 71 1012.4
20260502214541 64 269 0.9 3.5 0.00 0.00 0.00 72 1012.6
20260502213033 61 327 0.9 2.6 0.00 0.00 0.00 74 1012.8
20260502211535 60 23 2.6 4.3 0.00 0.00 0.00 74 1012.8
20260502210031 61 360 0.0 3.5 0.00 0.00 0.00 76 1012.9
20260502204528 60 287 1.7 4.3 0.00 0.00 0.00 76 1013.1
20260502203025 60 325 1.7 4.3 0.00 0.00 0.00 77 1013.4
20260502201508 59 346 2.6 5.2 0.00 0.00 0.00 78 1013.6
20260502200004 59 263 0.0 3.5 0.00 0.00 0.00 79 1013.8
20260502194600 59 258 0.0 2.6 0.00 0.00 0.00 81 1014.0